Theta_e
302 302 303 303 303 303 303 302 302 303 302 302 302 302 302 302 301 301 302 301 302 302 303 304 305 307 308 308 310 310 310 309
301 302 302 303 302 301 301 300 300 300 300 300 300 300 300 299 299 298 299 299 298 298 299 300 300 302 302 303 304 304 305 306
301 301 301 300 300 298 298 297 297 298 298 297 297 297 297 296 296 297 296 297 297 297 297 297 297 298 298 298 300 300 300 302
300 299 299 298 298 296 296 295 295 296 296 295 295 294 294 294 294 294 294 294 295 295 295 295 296 295 296 296 296 297 298 298
299 298 298 298 297 295 294 294 294 294 294 294 293 293 292 292 292 292 292 292 293 293 293 293 293 294 294 294 293 294 295 296
297 297 296 295 295 294 293 293 293 293 292 292 292 292 291 291 291 290 290 290 291 290 290 291 291 292 291 290 290 290 291 291
296 295 294 293 293 293 292 292 292 291 290 290 290 289 289 289 288 288 288 289 288 288 288 288 290 291 291 290 288 288 288 288
294 293 292 292 292 291 291 292 291 290 289 288 288 287 287 286 286 286 286 287 286 287 287 287 288 290 290 289 287 287 287 288
293 292 292 292 291 291 290 290 289 288 288 286 285 284 284 284 284 285 285 285 285 285 286 286 286 288 288 288 286 286 287 287
293 292 291 290 289 288 288 287 287 285 285 284 283 282 282 281 282 283 283 283 283 283 283 284 284 287 287 287 285 285 285 286
291 290 289 288 287 285 285 284 283 282 281 281 281 279 279 280 280 282 282 281 282 281 282 282 283 286 287 287 285 283 283 284
289 288 287 284 283 282 282 281 281 280 279 278 278 277 277 278 279 279 280 281 281 282 282 282 283 284 286 287 284 283 282 282
287 285 283 281 281 280 279 279 278 277 275 274 274 275 276 275 276 277 278 278 280 281 282 283 283 284 285 286 286 286 283 283
284 280 279 278 278 277 277 275 274 271 270 271 272 273 274 275 275 276 278 278 278 280 280 280 282 283 286 287 286 285 284 285
278 277 276 276 275 274 273 273 267 268 269 271 271 273 274 276 275 276 276 276 277 277 278 279 280 282 284 285 285 284 285 285
277 276 275 274 273 272 271 268 267 267 269 271 273 273 272 274 274 274 275 276 275 276 277 278 279 282 285 285 285 285 285 284
274 273 272 271 270 269 266 265 263 266 269 270 269 271 271 272 272 276 277 279 280 281 281 281 284 285 285 286 286 286 285 283
272 271 269 268 268 266 265 263 262 264 265 267 268 269 270 270 271 270 274 277 279 281 282 283 282 282 283 285 285 283 283 280
269 267 266 264 263 265 264 263 261 262 264 265 268 269 269 270 270 270 270 271 274 280 280 280 280 279 279 282 283 277 276 275
264 263 262 261 262 262 260 261 262 264 266 267 267 268 269 269 271 272 273 273 276 276 276 275 277 277 275 276 274 273 271 271
Wind_Speed
10 9 9 10 10 11 11 12 10 11 9 9 9 9 8 7 8 9 8 9 8 8 8 8 8 8 9 8 8 9 8 8
10 9 8 8 9 9 10 11 9 9 9 9 8 9 8 8 8 8 8 9 9 9 9 9 9 9 8 9 10 10 11 10
10 10 8 8 8 9 9 9 8 8 9 9 9 9 9 9 9 9 9 8 8 9 9 9 10 9 9 10 10 11 11 12
10 10 9 8 8 9 8 8 7 8 8 9 9 9 8 8 9 9 9 9 9 8 8 9 9 9 9 9 10 11 11 12
11 10 9 9 8 8 8 7 6 7 7 7 7 7 8 8 9 10 9 10 10 9 10 10 10 10 9 10 11 12 11 12
11 10 10 9 8 7 7 7 7 8 8 8 6 8 8 7 7 7 7 8 9 9 9 9 8 7 8 11 11 12 13 12
13 11 10 8 8 7 7 7 6 6 4 5 5 4 5 6 7 7 7 7 7 8 9 9 8 13 15 14 11 12 12 13
13 11 8 8 6 7 6 5 5 3 3 3 4 6 7 7 8 8 9 9 9 10 10 11 11 15 18 18 11 12 12 13
11 11 9 8 7 5 4 4 3 2 2 3 6 6 7 8 8 8 9 10 10 11 11 11 10 18 20 19 13 12 14 14
10 10 9 7 6 4 2 0 0 3 5 6 6 7 8 8 10 10 10 11 10 10 12 12 12 19 21 18 11 12 15 14
11 9 9 6 4 2 2 1 4 6 7 7 7 7 9 10 11 10 10 11 9 12 12 15 14 18 20 17 10 14 12 14
11 9 8 5 2 3 3 4 5 5 7 7 8 9 9 10 10 10 11 12 12 13 13 15 14 15 20 21 11 10 11 11
10 9 7 4 3 3 3 5 6 6 7 8 8 8 8 10 9 10 11 12 12 12 12 8 11 17 18 20 19 18 10 10
9 8 5 4 4 2 3 4 5 5 7 7 8 8 8 9 10 9 9 9 10 9 11 11 9 10 19 18 14 18 11 7
8 6 4 4 3 2 3 3 3 6 7 7 8 8 8 7 7 8 8 9 9 9 10 11 11 9 9 6 9 9 7 9
6 5 4 3 2 1 1 2 4 5 6 7 6 8 9 8 8 8 9 10 11 10 10 11 11 10 15 17 9 6 6 7
5 4 3 2 2 2 2 0 3 6 6 6 7 7 7 8 10 13 18 21 22 24 18 10 19 16 20 20 14 9 6 3
7 5 4 4 3 2 1 0 2 6 7 7 7 7 7 7 9 12 9 18 19 18 17 15 12 15 17 18 3 10 4 3
6 4 3 2 3 1 1 2 4 6 8 7 6 6 7 7 8 8 10 10 9 11 13 10 12 13 16 17 5 4 6 4
4 4 4 3 3 2 1 3 5 6 6 5 6 6 7 8 8 8 9 9 7 7 9 10 14 8 12 14 6 4 5 4
Wind_Direction
116 106 99 92 87 82 78 73 65 66 62 60 54 51 44 41 32 19 6 2 355 352 345 337 332 327 319 306 300 296 288 283
128 117 104 95 88 82 75 72 64 62 58 57 50 43 41 34 25 14 359 357 352 347 339 335 331 331 323 314 307 302 298 292
140 131 118 104 91 82 74 70 59 56 59 52 43 35 31 23 15 5 360 351 344 342 337 332 328 326 321 315 313 307 301 297
150 145 131 117 104 91 80 72 59 55 50 46 37 28 21 12 2 357 349 343 337 332 327 321 317 315 314 311 311 304 298 297
156 144 127 118 110 97 83 69 58 56 48 48 28 12 10 0 355 347 342 332 333 331 325 323 319 314 310 324 314 305 299 298
156 148 136 123 110 101 87 66 43 40 33 20 11 358 347 343 332 325 309 310 311 311 307 308 307 302 321 309 303 298 297 292
158 144 132 125 112 100 79 62 35 34 19 354 338 329 332 329 319 311 306 308 307 299 296 298 297 305 303 303 298 293 293 293
155 146 132 117 105 82 63 50 26 355 351 323 336 339 340 327 323 317 315 312 305 300 300 297 296 296 298 301 297 293 287 287
146 139 125 111 95 85 59 41 351 321 329 2 350 338 327 322 315 314 314 311 308 304 301 297 296 300 303 304 297 289 287 288
139 127 120 108 94 74 101 251 276 8 354 350 345 329 323 320 320 319 316 311 308 303 302 298 297 306 307 309 304 297 299 300
122 119 121 109 90 159 133 12 30 0 340 335 334 327 323 317 313 310 304 300 305 305 306 306 302 304 308 314 307 302 305 303
129 129 129 124 134 92 42 35 10 346 336 331 328 320 307 305 306 305 301 298 299 299 300 299 302 304 308 307 306 302 302 302
131 138 130 105 86 68 38 20 1 341 327 320 314 306 304 301 301 302 301 294 292 293 295 296 303 303 297 300 310 311 299 299
135 131 117 93 78 73 46 3 341 334 306 299 300 297 295 302 303 302 297 295 297 298 302 304 305 305 304 297 296 314 303 304
132 133 137 113 90 70 1 2 347 299 305 308 303 304 297 298 295 291 293 293 296 301 299 303 304 294 298 314 302 296 297 305
140 140 148 131 135 112 355 10 304 297 297 298 299 308 303 288 291 290 283 284 295 292 292 295 293 300 303 306 304 305 309 325
139 143 154 160 201 179 130 243 307 310 310 313 304 303 301 302 303 292 292 293 292 294 287 282 284 305 324 311 306 323 352 303
168 164 169 195 220 118 101 86 279 283 292 296 301 297 301 304 302 307 306 301 301 305 311 318 338 333 332 328 8 47 30 9
144 159 179 206 251 354 348 296 266 270 273 273 278 289 292 293 297 296 299 309 310 320 333 343 339 346 351 342 62 45 37 33
148 177 181 196 238 147 126 275 278 286 284 289 290 285 287 285 279 289 293 291 312 339 339 349 330 349 15 22 46 52 48 28